This demonstration page uses our WeatherBlox Daily Observations layout. Learn more.

38.89511, -77.03637

Hourly Observations for April 26, 2015

Temp ( °F °C ) Dew Point ( °F °C ) Humidity (%) Winds ( mph kmh ) Pressure ( in mb ) Visibility ( mi km ) Precip ( " mm )
12:52 am 00:52 Cloudy 46 8 39 4 76 76 ENE 3 6 29.74 1007 10 16.09344 0.01 0.254
1:52 am 01:52 Cloudy 45 7 39 4 81 81 SSW 7 11 29.71 1006 10 16.09344 0 0
2:52 am 02:52 Cloudy 46 8 39 4 76 76 Calm 29.68 1005 10 16.09344 0 0
3:52 am 03:52 Cloudy 46 8 39 4 76 76 NNW 5 7 29.71 1006 10 16.09344 0 0
4:52 am 04:52 Cloudy 46 8 41 5 82 82 NNW 8 13 29.68 1005 9 14.484096 0 0
5:52 am 05:52 Cloudy 46 8 39 4 76 76 NW 6 9 29.68 1005 10 16.09344 0 0
6:52 am 06:52 Cloudy 46 8 39 4 76 76 NW 6 9 29.71 1006 10 16.09344 0 0
7:52 am 07:52 Cloudy 48 9 39 4 71 71 N 7 11 29.71 1006 10 16.09344 0 0
8:52 am 08:52 Mostly Cloudy 50 10 39 4 67 67 N 8 13 29.71 1006 10 16.09344 0 0
9:52 am 09:52 Partly Cloudy 54 12 37 3 54 54 NNE 6 9 29.71 1006 10 16.09344 0 0
10:52 am 10:52 Partly Cloudy 57 14 37 3 48 48 NNE 5 7 29.74 1007 10 16.09344 0 0
11:52 am 11:52 Partly Cloudy 59 15 36 2 42 42 Calm 29.74 1007 10 16.09344 0 0
12:52 pm 12:52 Partly Cloudy 63 17 34 1 34 34 Calm 29.71 1006 10 16.09344 0 0
1:52 pm 13:52 Mostly Cloudy 64 18 36 2 34 34 N 3 6 29.71 1006 10 16.09344 0 0
2:52 pm 14:52 Mostly Cloudy 64 18 34 1 32 32 Calm 29.71 1006 10 16.09344 0 0
3:52 pm 15:52 Partly Cloudy 64 18 34 1 32 32 NE 7 11 29.68 1005 10 16.09344 0 0
4:52 pm 16:52 Mostly Cloudy 66 19 34 1 30 30 WNW 10 17 29.68 1005 10 16.09344 0 0
5:52 pm 17:52 Mostly Cloudy 66 19 36 2 32 32 N 6 9 29.68 1005 10 16.09344 0 0
6:52 pm 18:52 Partly Cloudy 64 18 36 2 34 34 N 6 9 29.68 1005 10 16.09344 0 0
7:52 pm 19:52 Mostly Cloudy 61 16 36 2 39 39 N 10 17 29.71 1006 10 16.09344 0 0
8:52 pm 20:52 Partly Cloudy 59 15 39 4 48 48 ENE 5 7 29.71 1006 10 16.09344 0 0
9:52 pm 21:52 Mostly Clear 57 14 37 3 48 48 SSE 6 9 29.74 1007 10 16.09344 0 0
10:52 pm 22:52 Partly Cloudy 55 13 37 3 51 51 Calm 29.74 1007 10 16.09344 0 0
11:52 pm 23:52 Partly Cloudy 54 12 37 3 54 54 Calm 29.74 1007 10 16.09344 0 0

Powered by AerisWeather